Погода в Раве-Русской

Украина / Львовская область     50°14′00″N   23°37′13″E
темп.,
°C
ветер,
м/с
пор.,
м/с
влажн.,
%
обл.,
%
осадки,
мм/ч
давл.,
гПа
погр.,
м
16 сентября, чт
чт1600:00+14вюв3380100 0.0 101753
03:00+13вюв338487 0.0 101648
06:00+13ююв358661 0.0 101574
09:00+17ююв3774100 0.0 1014173
12:00+22ююз4554100 0.0 1014702
15:00+25зюз564896 0.0 10131126
18:00+19зюз3569100 0.0 1013114
21:00+18ююв2270100 0.0 101311
17 сентября, пт
пт1700:00+17юв237398 0.3 101248
03:00+17ю2583100 0.3 1011124
06:00+16зюз2392100 0.1 101094
09:00+16сз239087 0.1 1009173
12:00+18зсз2287100 0.5 1008504
15:00+17с3593100 2.5 1007371
18:00+14сз61398100 15.7 1007576
21:00+13сз61296100 31.4 1008656
18 сентября, сб
сб1800:00+13зсз61295100 4.6 1009574
03:00+13зсз71295100 4.6 1009567
06:00+12з71293100 0.0 1009715
09:00+12з71493100 0.2 1009672
12:00+12з71290100 0.3 1009778
15:00+12з71291100 0.6 1010755
18:00+11з51196100 2.4 1010889
21:00+10сз3695100 3.7 1010424
19 сентября, вс
вс1900:00+8сз4794100 1.8 1011505
03:00+6зсз5893100 3.9 1012948
06:00+5з6894100 0.4 1012895
09:00+6з6996100 0.6 1013687
12:00+7зсз5793100 0.4 10131000
15:00+7зсз5893100 0.8 1013705
18:00+6зсз5793100 0.8 1013972
21:00+6зсз5996100 1.3 1013622
20 сентября, пн
пн2000:00+6зсз51098100 0.4 1013477
03:00+6сз51097100 1.4 1013648
06:00+6сз51096100 1.4 1013572
09:00+6сз5997100 1.9 1014624
12:00+7сз5892100 0.1 1016787
15:00+6сз5792100 0.2 1017864
18:00+6сз5793100 0.3 1018952
21:00+5ссз4794100 1.1 1020896